Orbital Elements at Epoch 2459200.5 (2020-Dec-17.0) TDB
Reference: JPL 24 (heliocentric ecliptic J2000)
Element | Value | Uncertainty (1-sigma) | Units |
e | .0855589041056278 | 3.4507e-08 | |
a | 2.331614263709852 | 9.7028e-09 | au |
q | 2.132123902509786 | 7.9578e-08 | au |
i | 6.662668496563448 | 5.394e-06 | deg |
node | 181.4266731387278 | 3.0682e-05 | deg |
peri | 70.12525743373976 | 4.4768e-05 | deg |
M | 221.8149280534936 | 3.4209e-05 | deg |
tp | 2459699.662682890947 (2022-Apr-30.16268289) | 0.00012473 | TDB |
period | 1300.419526577407 3.56 | 8.1174e-06 2.222e-08 | d yr |
n | .2768337391453119 | 1.728e-09 | deg/d |
Q | 2.531104624909917 | 1.0533e-08 | au |
|
| | Orbit Determination Parameters
Additional Information
|